Year,Month,Day,Hour,Minute,Value (Times are PST for temperature in C)
2010,08,14,00,00,17.20
2010,08,14,00,01,17.30
2010,08,14,00,02,17.30
2010,08,14,00,03,17.30
2010,08,14,00,04,17.30
2010,08,14,00,05,17.30
2010,08,14,00,06,17.30
2010,08,14,00,07,17.30
2010,08,14,00,08,17.30
2010,08,14,00,09,17.40
2010,08,14,00,10,17.30
2010,08,14,00,11,17.30
2010,08,14,00,12,17.30
2010,08,14,00,13,17.30
2010,08,14,00,14,17.30
2010,08,14,00,15,17.30
2010,08,14,00,16,17.30
2010,08,14,00,17,17.20
2010,08,14,00,18,17.20
2010,08,14,00,19,17.20
2010,08,14,00,20,17.20
2010,08,14,00,21,17.20
2010,08,14,00,22,17.20
2010,08,14,00,23,17.20
2010,08,14,00,24,17.30
2010,08,14,00,25,17.20
2010,08,14,00,26,17.20
2010,08,14,00,27,17.20
2010,08,14,00,28,17.20
2010,08,14,00,29,17.20
2010,08,14,00,30,17.20
2010,08,14,00,31,17.20
2010,08,14,00,32,17.30
2010,08,14,00,33,17.30
2010,08,14,00,34,17.30
2010,08,14,00,35,17.30
2010,08,14,00,36,17.30
2010,08,14,00,37,17.30
2010,08,14,00,38,17.20
2010,08,14,00,39,17.20
2010,08,14,00,40,17.20
2010,08,14,00,41,17.20
2010,08,14,00,42,17.20
2010,08,14,00,43,17.20
2010,08,14,00,44,17.20
2010,08,14,00,45,17.20
2010,08,14,00,46,17.10
2010,08,14,00,47,17.10
2010,08,14,00,48,17.10
2010,08,14,00,49,17.10
2010,08,14,00,50,17.10
2010,08,14,00,51,17.00
2010,08,14,00,52,17.00
2010,08,14,00,53,16.90
2010,08,14,00,54,16.90
2010,08,14,00,55,16.90
2010,08,14,00,56,16.90
2010,08,14,00,57,16.80
2010,08,14,00,58,16.80
2010,08,14,00,59,16.80
2010,08,14,01,00,16.80
2010,08,14,01,01,16.80
2010,08,14,01,02,16.80
2010,08,14,01,03,16.80
2010,08,14,01,04,16.80
2010,08,14,01,05,16.80
2010,08,14,01,06,16.80
2010,08,14,01,07,16.80
2010,08,14,01,08,16.80
2010,08,14,01,09,16.80
2010,08,14,01,10,16.80
2010,08,14,01,11,16.70
2010,08,14,01,12,16.70
2010,08,14,01,13,16.70
2010,08,14,01,14,16.70
2010,08,14,01,15,16.70
2010,08,14,01,16,16.70
2010,08,14,01,17,16.60
2010,08,14,01,18,16.60
2010,08,14,01,19,16.50
2010,08,14,01,20,16.40
2010,08,14,01,21,16.40
2010,08,14,01,22,16.40
2010,08,14,01,23,16.40
2010,08,14,01,24,16.40
2010,08,14,01,25,16.40
2010,08,14,01,26,16.40
2010,08,14,01,27,16.40
2010,08,14,01,28,16.40
2010,08,14,01,29,16.40
2010,08,14,01,30,16.40
2010,08,14,01,31,16.40
2010,08,14,01,32,16.40
2010,08,14,01,33,16.30
2010,08,14,01,34,16.30
2010,08,14,01,35,16.20
2010,08,14,01,36,16.20
2010,08,14,01,37,16.20
2010,08,14,01,38,16.20
2010,08,14,01,39,16.10
2010,08,14,01,40,16.20
2010,08,14,01,41,16.20
2010,08,14,01,42,16.10
2010,08,14,01,43,16.10
2010,08,14,01,44,16.10
2010,08,14,01,45,16.10
2010,08,14,01,46,16.10
2010,08,14,01,47,16.10
2010,08,14,01,48,16.10
2010,08,14,01,49,16.10
2010,08,14,01,50,16.10
2010,08,14,01,51,16.10
2010,08,14,01,52,16.10
2010,08,14,01,53,16.10
2010,08,14,01,54,16.10
2010,08,14,01,55,16.10
2010,08,14,01,56,16.10
2010,08,14,01,57,16.10
2010,08,14,01,58,16.10
2010,08,14,01,59,16.10
2010,08,14,02,00,16.10
2010,08,14,02,01,16.10
2010,08,14,02,02,16.10
2010,08,14,02,03,16.00
2010,08,14,02,04,15.90
2010,08,14,02,05,15.90
2010,08,14,02,06,15.90
2010,08,14,02,07,15.90
2010,08,14,02,08,15.90
2010,08,14,02,09,15.80
2010,08,14,02,10,15.80
2010,08,14,02,11,15.80
2010,08,14,02,12,15.80
2010,08,14,02,13,15.80
2010,08,14,02,14,15.80
2010,08,14,02,15,15.80
2010,08,14,02,16,15.70
2010,08,14,02,17,15.70
2010,08,14,02,18,15.70
2010,08,14,02,19,15.60
2010,08,14,02,20,15.60
2010,08,14,02,21,15.60
2010,08,14,02,22,15.60
2010,08,14,02,23,15.50
2010,08,14,02,24,15.50
2010,08,14,02,25,15.50
2010,08,14,02,26,15.50
2010,08,14,02,27,15.60
2010,08,14,02,28,15.60
2010,08,14,02,29,15.70
2010,08,14,02,30,15.70
2010,08,14,02,31,15.60
2010,08,14,02,32,15.60
2010,08,14,02,33,15.60
2010,08,14,02,34,15.60
2010,08,14,02,35,15.60
2010,08,14,02,36,15.70
2010,08,14,02,37,15.70
2010,08,14,02,38,15.60
2010,08,14,02,39,15.60
2010,08,14,02,40,15.60
2010,08,14,02,41,15.50
2010,08,14,02,42,15.50
2010,08,14,02,43,15.50
2010,08,14,02,44,15.50
2010,08,14,02,45,15.50
2010,08,14,02,46,15.50
2010,08,14,02,47,15.60
2010,08,14,02,48,15.60
2010,08,14,02,49,15.60
2010,08,14,02,50,15.60
2010,08,14,02,51,15.60
2010,08,14,02,52,15.60
2010,08,14,02,53,15.60
2010,08,14,02,54,15.60
2010,08,14,02,55,15.60
2010,08,14,02,56,15.60
2010,08,14,02,57,15.60
2010,08,14,02,58,15.50
2010,08,14,02,59,15.50
2010,08,14,03,00,15.50
2010,08,14,03,01,15.50
2010,08,14,03,02,15.50
2010,08,14,03,03,15.50
2010,08,14,03,04,15.50
2010,08,14,03,05,15.40
2010,08,14,03,06,15.40
2010,08,14,03,07,15.40
2010,08,14,03,08,15.30
2010,08,14,03,09,15.30
2010,08,14,03,10,15.30
2010,08,14,03,11,15.30
2010,08,14,03,12,15.30
2010,08,14,03,13,15.30
2010,08,14,03,14,15.30
2010,08,14,03,15,15.30
2010,08,14,03,16,15.30
2010,08,14,03,17,15.20
2010,08,14,03,18,15.20
2010,08,14,03,19,15.20
2010,08,14,03,20,15.20
2010,08,14,03,21,15.10
2010,08,14,03,22,15.10
2010,08,14,03,23,15.00
2010,08,14,03,24,15.00
2010,08,14,03,25,14.90
2010,08,14,03,26,14.90
2010,08,14,03,27,14.90
2010,08,14,03,28,14.80
2010,08,14,03,29,14.80
2010,08,14,03,30,14.80
2010,08,14,03,31,14.80
2010,08,14,03,32,14.80
2010,08,14,03,33,14.80
2010,08,14,03,34,14.80
2010,08,14,03,35,14.80
2010,08,14,03,36,14.80
2010,08,14,03,37,14.80
2010,08,14,03,38,14.80
2010,08,14,03,39,14.80
2010,08,14,03,40,14.80
2010,08,14,03,41,14.80
2010,08,14,03,42,14.80
2010,08,14,03,43,14.80
2010,08,14,03,44,14.80
2010,08,14,03,45,14.80
2010,08,14,03,46,14.80
2010,08,14,03,47,14.80
2010,08,14,03,48,14.80
2010,08,14,03,49,14.80
2010,08,14,03,50,14.80
2010,08,14,03,51,14.90
2010,08,14,03,52,14.90
2010,08,14,03,53,14.90
2010,08,14,03,54,14.90
2010,08,14,03,55,14.90
2010,08,14,03,56,14.90
2010,08,14,03,57,14.90
2010,08,14,03,58,14.90
2010,08,14,03,59,14.90
2010,08,14,04,00,15.00
2010,08,14,04,01,15.00
2010,08,14,04,02,15.00
2010,08,14,04,03,15.10
2010,08,14,04,04,15.00
2010,08,14,04,05,15.00
2010,08,14,04,06,15.00
2010,08,14,04,07,15.00
2010,08,14,04,08,15.00
2010,08,14,04,09,15.00
2010,08,14,04,10,15.00
2010,08,14,04,11,15.00
2010,08,14,04,12,14.90
2010,08,14,04,13,14.90
2010,08,14,04,14,14.90
2010,08,14,04,15,14.90
2010,08,14,04,16,14.90
2010,08,14,04,17,14.80
2010,08,14,04,18,14.80
2010,08,14,04,19,14.80
2010,08,14,04,20,14.80
2010,08,14,04,21,14.80
2010,08,14,04,22,14.80
2010,08,14,04,23,14.80
2010,08,14,04,24,14.80
2010,08,14,04,25,14.80
2010,08,14,04,26,14.70
2010,08,14,04,27,14.70
2010,08,14,04,28,14.60
2010,08,14,04,29,14.60
2010,08,14,04,30,14.60
2010,08,14,04,31,14.70
2010,08,14,04,32,14.70
2010,08,14,04,33,14.80
2010,08,14,04,34,14.80
2010,08,14,04,35,14.80
2010,08,14,04,36,14.80
2010,08,14,04,37,14.80
2010,08,14,04,38,14.80
2010,08,14,04,39,14.80
2010,08,14,04,40,14.70
2010,08,14,04,41,14.70
2010,08,14,04,42,14.70
2010,08,14,04,43,14.70
2010,08,14,04,44,14.60
2010,08,14,04,45,14.60
2010,08,14,04,46,14.60
2010,08,14,04,47,14.60
2010,08,14,04,48,14.60
2010,08,14,04,49,14.60
2010,08,14,04,50,14.50
2010,08,14,04,51,14.50
2010,08,14,04,52,14.50
2010,08,14,04,53,14.50
2010,08,14,04,54,14.40
2010,08,14,04,55,14.40
2010,08,14,04,56,14.40
2010,08,14,04,57,14.40
2010,08,14,04,58,14.40
2010,08,14,04,59,14.40
2010,08,14,05,00,14.50
2010,08,14,05,01,14.50
2010,08,14,05,02,14.50
2010,08,14,05,03,14.50
2010,08,14,05,04,14.50
2010,08,14,05,05,14.60
2010,08,14,05,06,14.60
2010,08,14,05,07,14.60
2010,08,14,05,08,14.60
2010,08,14,05,09,14.60
2010,08,14,05,10,14.50
2010,08,14,05,11,14.50
2010,08,14,05,12,14.50
2010,08,14,05,13,14.50
2010,08,14,05,14,14.40
2010,08,14,05,15,14.40
2010,08,14,05,16,14.40
2010,08,14,05,17,14.50
2010,08,14,05,18,14.50
2010,08,14,05,19,14.40
2010,08,14,05,20,14.40
2010,08,14,05,21,14.40
2010,08,14,05,22,14.40
2010,08,14,05,23,14.40
2010,08,14,05,24,14.40
2010,08,14,05,25,14.30
2010,08,14,05,26,14.30
2010,08,14,05,27,14.40
2010,08,14,05,28,14.40
2010,08,14,05,29,14.40
2010,08,14,05,30,14.40
2010,08,14,05,31,14.30
2010,08,14,05,32,14.30
2010,08,14,05,33,14.20
2010,08,14,05,34,14.20
2010,08,14,05,35,14.20
2010,08,14,05,36,14.20
2010,08,14,05,37,14.20
2010,08,14,05,38,14.20
2010,08,14,05,39,14.20
2010,08,14,05,40,14.20
2010,08,14,05,41,14.20
2010,08,14,05,42,14.20
2010,08,14,05,43,14.20
2010,08,14,05,44,14.20
2010,08,14,05,45,14.20
2010,08,14,05,46,14.20
2010,08,14,05,47,14.20
2010,08,14,05,48,14.20
2010,08,14,05,49,14.20
2010,08,14,05,50,14.10
2010,08,14,05,51,14.10
2010,08,14,05,52,14.10
2010,08,14,05,53,14.00
2010,08,14,05,54,14.00
2010,08,14,05,55,13.90
2010,08,14,05,56,13.90
2010,08,14,05,57,13.90
2010,08,14,05,58,13.90
2010,08,14,05,59,13.90
2010,08,14,06,00,13.80
2010,08,14,06,01,13.80
2010,08,14,06,02,13.70
2010,08,14,06,03,13.70
2010,08,14,06,04,13.70
2010,08,14,06,05,13.70
2010,08,14,06,06,13.70
2010,08,14,06,07,13.70
2010,08,14,06,08,13.70
2010,08,14,06,09,13.70
2010,08,14,06,10,13.70
2010,08,14,06,11,13.70
2010,08,14,06,12,13.70
2010,08,14,06,13,13.70
2010,08,14,06,14,13.70
2010,08,14,06,15,13.70
2010,08,14,06,16,13.70
2010,08,14,06,17,13.70
2010,08,14,06,18,13.70
2010,08,14,06,19,13.70
2010,08,14,06,20,13.70
2010,08,14,06,21,13.70
2010,08,14,06,22,13.70
2010,08,14,06,23,13.70
2010,08,14,06,24,13.70
2010,08,14,06,25,13.70
2010,08,14,06,26,13.70
2010,08,14,06,27,13.80
2010,08,14,06,28,13.80
2010,08,14,06,29,13.80
2010,08,14,06,30,13.80
2010,08,14,06,31,13.80
2010,08,14,06,32,13.70
2010,08,14,06,33,13.70
2010,08,14,06,34,13.70
2010,08,14,06,35,13.70
2010,08,14,06,36,13.70
2010,08,14,06,37,13.70
2010,08,14,06,38,13.70
2010,08,14,06,39,13.70
2010,08,14,06,40,13.70
2010,08,14,06,41,13.70
2010,08,14,06,42,13.70
2010,08,14,06,43,13.70
2010,08,14,06,44,13.70
2010,08,14,06,45,13.70
2010,08,14,06,46,13.70
2010,08,14,06,47,13.70
2010,08,14,06,48,13.70
2010,08,14,06,49,13.70
2010,08,14,06,50,13.70
2010,08,14,06,51,13.70
2010,08,14,06,52,13.80
2010,08,14,06,53,13.80
2010,08,14,06,54,13.80
2010,08,14,06,55,13.80
2010,08,14,06,56,13.90
2010,08,14,06,57,13.90
2010,08,14,06,58,13.90
2010,08,14,06,59,13.90
2010,08,14,07,00,14.00
2010,08,14,07,01,14.00
2010,08,14,07,02,14.00
2010,08,14,07,03,14.00
2010,08,14,07,04,14.10
2010,08,14,07,05,14.10
2010,08,14,07,06,14.20
2010,08,14,07,07,14.20
2010,08,14,07,08,14.20
2010,08,14,07,09,14.20
2010,08,14,07,10,14.20
2010,08,14,07,11,14.30
2010,08,14,07,12,14.40
2010,08,14,07,13,14.40
2010,08,14,07,14,14.50
2010,08,14,07,15,14.60
2010,08,14,07,16,14.60
2010,08,14,07,17,14.70
2010,08,14,07,18,14.70
2010,08,14,07,19,14.80
2010,08,14,07,20,14.90
2010,08,14,07,21,15.10
2010,08,14,07,22,15.20
2010,08,14,07,23,15.30
2010,08,14,07,24,15.30
2010,08,14,07,25,15.40
2010,08,14,07,26,15.50
2010,08,14,07,27,15.60
2010,08,14,07,28,15.80
2010,08,14,07,29,15.90
2010,08,14,07,30,15.90
2010,08,14,07,31,16.00
2010,08,14,07,32,16.10
2010,08,14,07,33,16.20
2010,08,14,07,34,16.30
2010,08,14,07,35,16.30
2010,08,14,07,36,16.40
2010,08,14,07,37,16.50
2010,08,14,07,38,16.60
2010,08,14,07,39,16.70
2010,08,14,07,40,16.80
2010,08,14,07,41,16.80
2010,08,14,07,42,16.90
2010,08,14,07,43,16.90
2010,08,14,07,44,17.00
2010,08,14,07,45,17.10
2010,08,14,07,46,17.30
2010,08,14,07,47,17.30
2010,08,14,07,48,17.40
2010,08,14,07,49,17.50
2010,08,14,07,50,17.50
2010,08,14,07,51,17.60
2010,08,14,07,52,17.70
2010,08,14,07,53,17.70
2010,08,14,07,54,17.80
2010,08,14,07,55,17.90
2010,08,14,07,56,18.00
2010,08,14,07,57,18.10
2010,08,14,07,58,18.20
2010,08,14,07,59,18.20
2010,08,14,08,00,18.20
2010,08,14,08,01,18.20
2010,08,14,08,02,18.30
2010,08,14,08,03,18.30
2010,08,14,08,04,18.40
2010,08,14,08,05,18.50
2010,08,14,08,06,18.60
2010,08,14,08,07,18.60
2010,08,14,08,08,18.70
2010,08,14,08,09,18.80
2010,08,14,08,10,18.80
2010,08,14,08,11,18.80
2010,08,14,08,12,18.80
2010,08,14,08,13,18.90
2010,08,14,08,14,18.90
2010,08,14,08,15,18.90
2010,08,14,08,16,19.10
2010,08,14,08,17,19.10
2010,08,14,08,18,19.30
2010,08,14,08,19,19.40
2010,08,14,08,20,19.50
2010,08,14,08,21,19.60
2010,08,14,08,22,19.70
2010,08,14,08,23,19.80
2010,08,14,08,24,19.90
2010,08,14,08,25,19.90
2010,08,14,08,26,19.80
2010,08,14,08,27,19.80
2010,08,14,08,28,19.80
2010,08,14,08,29,19.80
2010,08,14,08,30,19.80
2010,08,14,08,31,19.80
2010,08,14,08,32,19.70
2010,08,14,08,33,19.70
2010,08,14,08,34,19.70
2010,08,14,08,35,19.70
2010,08,14,08,36,19.80
2010,08,14,08,37,19.80
2010,08,14,08,38,19.80
2010,08,14,08,39,19.90
2010,08,14,08,40,20.00
2010,08,14,08,41,20.20
2010,08,14,08,42,20.20
2010,08,14,08,43,20.40
2010,08,14,08,44,20.60
2010,08,14,08,45,20.70
2010,08,14,08,46,20.90
2010,08,14,08,47,21.00
2010,08,14,08,48,21.20
2010,08,14,08,49,21.30
2010,08,14,08,50,21.40
2010,08,14,08,51,21.50
2010,08,14,08,52,21.60
2010,08,14,08,53,21.70
2010,08,14,08,54,21.90
2010,08,14,08,55,22.00
2010,08,14,08,56,22.10
2010,08,14,08,57,22.20
2010,08,14,08,58,22.30
2010,08,14,08,59,22.40
2010,08,14,09,00,22.50
2010,08,14,09,01,22.50
2010,08,14,09,02,22.50
2010,08,14,09,03,22.60
2010,08,14,09,04,22.70
2010,08,14,09,05,22.70
2010,08,14,09,06,22.60
2010,08,14,09,07,22.50
2010,08,14,09,08,22.50
2010,08,14,09,09,22.50
2010,08,14,09,10,22.60
2010,08,14,09,11,22.70
2010,08,14,09,12,22.70
2010,08,14,09,13,22.70
2010,08,14,09,14,22.80
2010,08,14,09,15,22.80
2010,08,14,09,16,22.80
2010,08,14,09,17,22.80
2010,08,14,09,18,22.80
2010,08,14,09,19,22.80
2010,08,14,09,20,22.80
2010,08,14,09,21,22.80
2010,08,14,09,22,22.90
2010,08,14,09,23,22.90
2010,08,14,09,24,22.80
2010,08,14,09,25,22.80
2010,08,14,09,26,22.80
2010,08,14,09,27,22.90
2010,08,14,09,28,22.90
2010,08,14,09,29,22.90
2010,08,14,09,30,22.90
2010,08,14,09,31,22.90
2010,08,14,09,32,22.90
2010,08,14,09,33,22.90
2010,08,14,09,34,22.90
2010,08,14,09,35,22.90
2010,08,14,09,36,22.90
2010,08,14,09,37,22.90
2010,08,14,09,38,23.00
2010,08,14,09,39,23.10
2010,08,14,09,40,23.10
2010,08,14,09,41,23.20
2010,08,14,09,42,23.30
2010,08,14,09,43,23.30
2010,08,14,09,44,23.40
2010,08,14,09,45,23.60
2010,08,14,09,46,23.70
2010,08,14,09,47,23.70
2010,08,14,09,48,23.70
2010,08,14,09,49,23.80
2010,08,14,09,50,23.80
2010,08,14,09,51,23.80
2010,08,14,09,52,23.90
2010,08,14,09,53,23.90
2010,08,14,09,54,23.90
2010,08,14,09,55,23.90
2010,08,14,09,56,23.90
2010,08,14,09,57,23.90
2010,08,14,09,58,23.90
2010,08,14,09,59,23.70
2010,08,14,10,00,23.70
2010,08,14,10,01,23.70
2010,08,14,10,02,23.80
2010,08,14,10,03,23.80
2010,08,14,10,04,23.80
2010,08,14,10,05,23.90
2010,08,14,10,06,24.00
2010,08,14,10,07,24.10
2010,08,14,10,08,24.00
2010,08,14,10,09,23.90
2010,08,14,10,10,23.80
2010,08,14,10,11,23.80
2010,08,14,10,12,23.90
2010,08,14,10,13,23.90
2010,08,14,10,14,23.90
2010,08,14,10,15,24.00
2010,08,14,10,16,24.10
2010,08,14,10,17,24.10
2010,08,14,10,18,24.20
2010,08,14,10,19,24.40
2010,08,14,10,20,24.50
2010,08,14,10,21,24.70
2010,08,14,10,22,24.90
2010,08,14,10,23,25.10
2010,08,14,10,24,25.20
2010,08,14,10,25,25.40
2010,08,14,10,26,25.50
2010,08,14,10,27,25.70
2010,08,14,10,28,25.80
2010,08,14,10,29,25.90
2010,08,14,10,30,26.00
2010,08,14,10,31,26.20
2010,08,14,10,32,26.40
2010,08,14,10,33,26.50
2010,08,14,10,34,26.60
2010,08,14,10,35,26.60
2010,08,14,10,36,26.60
2010,08,14,10,37,26.60
2010,08,14,10,38,26.60
2010,08,14,10,39,26.80
2010,08,14,10,40,27.00
2010,08,14,10,41,27.30
2010,08,14,10,42,27.60
2010,08,14,10,43,27.90
2010,08,14,10,44,28.20
2010,08,14,10,45,28.50
2010,08,14,10,46,28.70
2010,08,14,10,47,28.90
2010,08,14,10,48,29.10
2010,08,14,10,49,29.30
2010,08,14,10,50,29.50
2010,08,14,10,51,29.60
2010,08,14,10,52,29.80
2010,08,14,10,53,29.90
2010,08,14,10,54,30.00
2010,08,14,10,55,30.10
2010,08,14,10,56,30.20
2010,08,14,10,57,30.10
2010,08,14,10,58,30.00
2010,08,14,10,59,29.90
2010,08,14,11,00,29.90
2010,08,14,11,01,29.90
2010,08,14,11,02,29.90
2010,08,14,11,03,29.90
2010,08,14,11,04,29.90
2010,08,14,11,05,30.00
2010,08,14,11,06,30.10
2010,08,14,11,07,30.10
2010,08,14,11,08,30.10
2010,08,14,11,09,30.10
2010,08,14,11,10,30.10
2010,08,14,11,11,30.10
2010,08,14,11,12,30.20
2010,08,14,11,13,30.20
2010,08,14,11,14,30.20
2010,08,14,11,15,30.20
2010,08,14,11,16,30.20
2010,08,14,11,17,30.30
2010,08,14,11,18,30.30
2010,08,14,11,19,30.30
2010,08,14,11,20,30.30
2010,08,14,11,21,30.40
2010,08,14,11,22,30.40
2010,08,14,11,23,30.40
2010,08,14,11,24,30.40
2010,08,14,11,25,30.40
2010,08,14,11,26,30.40
2010,08,14,11,27,30.50
2010,08,14,11,28,30.60
2010,08,14,11,29,30.50
2010,08,14,11,30,30.40
2010,08,14,11,31,30.40
2010,08,14,11,32,30.30
2010,08,14,11,33,30.30
2010,08,14,11,34,30.30
2010,08,14,11,35,30.40
2010,08,14,11,36,30.30
2010,08,14,11,37,30.40
2010,08,14,11,38,30.30
2010,08,14,11,39,30.30
2010,08,14,11,40,30.30
2010,08,14,11,41,30.20
2010,08,14,11,42,30.20
2010,08,14,11,43,30.10
2010,08,14,11,44,30.10
2010,08,14,11,45,30.10
2010,08,14,11,46,30.00
2010,08,14,11,47,29.90
2010,08,14,11,48,30.10
2010,08,14,11,49,30.10
2010,08,14,11,50,30.10
2010,08,14,11,51,30.20
2010,08,14,11,52,30.20
2010,08,14,11,53,30.30
2010,08,14,11,54,30.30
2010,08,14,11,55,30.30
2010,08,14,11,56,30.30
2010,08,14,11,57,30.40
2010,08,14,11,58,30.40
2010,08,14,11,59,30.50
2010,08,14,12,00,30.60
2010,08,14,12,01,30.60
2010,08,14,12,02,30.60
2010,08,14,12,03,30.60
2010,08,14,12,04,30.70
2010,08,14,12,05,30.70
2010,08,14,12,06,30.60
2010,08,14,12,07,30.60
2010,08,14,12,08,30.60
2010,08,14,12,09,30.50
2010,08,14,12,10,30.40
2010,08,14,12,11,30.40
2010,08,14,12,12,30.40
2010,08,14,12,13,30.40
2010,08,14,12,14,30.50
2010,08,14,12,15,30.60
2010,08,14,12,16,30.70
2010,08,14,12,17,30.80
2010,08,14,12,18,30.80
2010,08,14,12,19,30.80
2010,08,14,12,20,30.70
2010,08,14,12,21,30.70
2010,08,14,12,22,30.60
2010,08,14,12,23,30.60
2010,08,14,12,24,30.70
2010,08,14,12,25,30.70
2010,08,14,12,26,30.70
2010,08,14,12,27,30.70
2010,08,14,12,28,30.80
2010,08,14,12,29,30.80
2010,08,14,12,30,30.80
2010,08,14,12,31,30.80
2010,08,14,12,32,30.80
2010,08,14,12,33,30.90
2010,08,14,12,34,31.00
2010,08,14,12,35,31.00
2010,08,14,12,36,31.00
2010,08,14,12,37,31.10
2010,08,14,12,38,31.10
2010,08,14,12,39,31.10
2010,08,14,12,40,31.10
2010,08,14,12,41,31.20
2010,08,14,12,42,31.10
2010,08,14,12,43,31.00
2010,08,14,12,44,31.00
2010,08,14,12,45,31.00
2010,08,14,12,46,31.00
2010,08,14,12,47,31.10
2010,08,14,12,48,31.20
2010,08,14,12,49,31.30
2010,08,14,12,50,31.30
2010,08,14,12,51,31.20
2010,08,14,12,52,31.20
2010,08,14,12,53,31.20
2010,08,14,12,54,31.10
2010,08,14,12,55,31.10
2010,08,14,12,56,31.10
2010,08,14,12,57,31.00
2010,08,14,12,58,31.00
2010,08,14,12,59,31.00
2010,08,14,13,00,31.00
2010,08,14,13,01,31.00
2010,08,14,13,02,31.00
2010,08,14,13,03,31.10
2010,08,14,13,04,31.20
2010,08,14,13,05,31.10
2010,08,14,13,06,31.20
2010,08,14,13,07,31.10
2010,08,14,13,08,31.10
2010,08,14,13,09,31.10
2010,08,14,13,10,31.10
2010,08,14,13,11,31.20
2010,08,14,13,12,31.20
2010,08,14,13,13,31.20
2010,08,14,13,14,31.30
2010,08,14,13,15,31.40
2010,08,14,13,16,31.40
2010,08,14,13,17,31.40
2010,08,14,13,18,31.40
2010,08,14,13,19,31.30
2010,08,14,13,20,31.30
2010,08,14,13,21,31.30
2010,08,14,13,22,31.30
2010,08,14,13,23,31.20
2010,08,14,13,24,31.20
2010,08,14,13,25,31.20
2010,08,14,13,26,31.30
2010,08,14,13,27,31.30
2010,08,14,13,28,31.20
2010,08,14,13,29,31.20
2010,08,14,13,30,31.20
2010,08,14,13,31,31.20
2010,08,14,13,32,31.20
2010,08,14,13,33,31.30
2010,08,14,13,34,31.30
2010,08,14,13,35,31.30
2010,08,14,13,36,31.40
2010,08,14,13,37,31.30
2010,08,14,13,38,31.30
2010,08,14,13,39,31.30
2010,08,14,13,40,31.20
2010,08,14,13,41,31.20
2010,08,14,13,42,31.10
2010,08,14,13,43,31.10
2010,08,14,13,44,31.10
2010,08,14,13,45,31.10
2010,08,14,13,46,31.10
2010,08,14,13,47,31.10
2010,08,14,13,48,31.00
2010,08,14,13,49,31.10
2010,08,14,13,50,31.20
2010,08,14,13,51,31.20
2010,08,14,13,52,31.20
2010,08,14,13,53,31.20
2010,08,14,13,54,31.20
2010,08,14,13,55,31.20
2010,08,14,13,56,31.20
2010,08,14,13,57,31.20
2010,08,14,13,58,31.20
2010,08,14,13,59,31.20
2010,08,14,14,00,31.20
2010,08,14,14,01,31.20
